Lapse_Rate
4.3 4.2 4.3 4.3 4.3 4.4 4.6 4.9 5.0 4.8 5.5 6.6 5.4 4.9 4.6 4.6 4.7 4.9 4.9 4.7 4.9 4.7 5.3 5.4 5.4 5.2 5.1 5.5 5.8 6.3 6.5 6.3 6.2 6.5 6.8 7.3 6.9 7.5 8.0 8.4 7.6 7.7 7.6 6.3
4.0 4.0 3.9 4.0 4.1 4.1 4.2 4.7 4.6 4.6 5.1 5.2 4.9 5.0 5.3 4.9 5.1 5.0 4.8 4.7 5.0 5.2 4.7 5.2 5.2 5.4 5.5 5.5 6.0 6.1 6.3 6.3 6.2 6.2 6.6 6.7 6.9 7.3 7.6 7.7 8.4 8.5 7.3 6.4
4.0 3.9 3.9 3.9 4.0 4.0 3.9 4.3 4.1 4.4 4.6 4.8 5.1 5.3 5.2 5.3 5.2 5.0 5.2 5.2 4.9 5.2 5.1 5.0 5.2 5.3 5.8 6.1 6.2 6.3 6.3 6.3 6.4 6.0 6.0 6.6 6.6 7.1 7.3 7.3 7.7 8.0 8.0 7.9
3.9 4.1 3.7 3.5 3.7 3.8 3.7 4.1 3.7 3.8 4.3 4.6 4.7 4.9 5.1 5.6 5.4 5.4 5.3 5.3 5.6 5.3 5.3 5.5 5.5 5.6 5.9 6.1 6.0 6.2 6.3 6.3 6.5 6.4 6.4 6.5 6.8 7.1 7.4 7.3 7.1 7.5 8.1 8.4
3.8 4.1 4.1 3.7 3.5 3.6 4.1 3.9 3.8 3.5 4.0 4.2 4.5 5.0 4.8 5.3 5.7 5.6 5.5 5.4 5.5 5.6 5.5 5.2 5.1 5.2 5.4 5.8 6.0 6.3 5.8 6.2 6.5 6.4 6.2 6.6 6.9 7.1 7.4 7.4 7.4 7.5 7.4 7.8
3.8 3.8 4.1 3.9 3.4 3.4 3.6 3.4 3.4 3.6 3.6 4.1 4.6 4.7 4.6 4.9 5.6 5.7 5.7 5.5 5.4 5.2 5.3 5.4 5.4 5.4 5.6 5.7 6.0 6.3 6.2 6.0 6.4 6.4 6.4 7.1 6.8 7.0 7.2 7.3 7.2 7.1 7.1 7.3
4.0 3.8 3.8 3.8 3.5 3.2 3.3 3.3 3.0 3.3 3.4 3.5 4.0 4.3 4.5 4.8 5.1 5.5 5.8 5.8 5.7 5.7 5.4 5.2 5.2 5.2 5.3 5.6 5.7 5.9 6.0 6.1 6.6 6.4 6.5 6.2 6.2 6.7 6.8 6.9 7.3 7.2 7.2 7.3
3.7 3.6 4.1 3.8 3.4 3.2 3.1 3.2 3.2 3.0 3.2 3.5 3.7 4.1 4.4 4.6 4.9 5.2 5.5 5.9 6.0 6.0 5.9 5.7 5.7 5.6 5.6 5.6 5.6 5.8 5.8 5.9 5.9 6.3 6.0 5.9 6.1 6.2 5.8 6.2 6.6 7.0 7.2 7.2
3.5 3.3 3.8 3.8 3.4 3.3 3.0 3.0 3.1 3.2 3.0 3.3 3.6 4.0 4.2 4.3 4.6 5.0 5.4 5.7 6.0 6.2 6.1 5.8 5.7 5.7 5.8 5.9 5.7 5.9 5.9 5.8 5.9 5.9 5.9 4.8 6.0 6.3 6.1 5.8 6.1 6.6 6.8 7.1
3.3 3.4 3.4 3.7 3.5 3.3 3.2 2.9 3.0 3.0 3.1 3.2 3.4 3.7 4.1 4.3 4.4 4.5 5.0 5.4 5.8 6.0 6.1 6.0 5.6 5.7 5.6 5.7 6.1 6.0 6.1 6.0 5.6 5.6 5.9 6.3 6.3 5.9 6.1 5.4 6.0 6.5 6.5 6.5
3.2 3.3 3.3 3.4 3.4 3.3 3.3 3.0 2.8 2.8 3.1 3.2 3.2 3.4 3.7 4.1 4.4 4.5 4.7 5.2 5.5 5.8 6.1 6.1 6.0 5.7 5.6 5.5 6.1 6.2 6.1 6.2 6.1 5.9 5.6 5.5 6.2 6.0 6.0 6.2 6.3 6.0 5.8 5.8
3.0 2.8 3.1 3.5 3.4 3.3 3.1 3.2 3.2 3.1 3.1 3.1 3.2 3.1 3.5 3.9 4.2 4.4 4.5 4.9 5.1 5.4 5.8 5.9 6.0 6.1 5.9 5.9 5.8 5.9 5.9 6.2 6.3 6.5 6.6 6.6 6.4 5.8 6.1 6.2 6.1 5.9 6.0 6.1
2.6 2.4 2.8 3.3 3.5 3.3 3.1 3.4 3.1 3.1 3.1 3.2 3.1 3.1 3.3 3.9 4.1 4.3 4.4 4.7 4.9 5.1 5.3 5.5 5.6 5.8 6.0 5.8 6.2 6.1 6.2 6.0 5.8 6.1 6.7 6.7 6.7 6.5 6.2 6.2 5.9 5.8 5.8 5.8
2.4 2.1 2.2 2.7 3.3 3.2 3.2 3.3 3.3 3.1 2.8 3.1 3.4 3.4 3.4 3.8 4.2 4.2 4.2 4.5 4.8 4.9 5.2 5.4 5.3 5.4 5.6 6.0 6.0 6.2 6.1 6.1 6.4 6.6 6.5 6.4 6.5 6.5 6.4 6.4 6.4 6.4 6.3 6.2
2.4 2.1 2.0 2.4 2.8 3.2 3.2 3.2 3.0 3.1 2.7 2.5 3.4 3.7 3.6 3.9 4.1 4.3 4.3 4.4 4.7 5.0 5.0 5.3 5.4 5.4 5.2 5.7 6.1 7.3 6.9 7.0 6.8 6.5 6.5 6.5 6.6 6.5 6.4 6.3 6.3 6.4 6.3 6.3
2.4 2.1 1.9 2.2 2.6 3.2 2.5 3.2 3.4 2.6 2.4 2.3 2.8 3.8 3.8 3.9 4.0 4.3 4.4 4.5 4.6 4.9 4.9 5.1 5.6 5.5 5.1 5.4 6.4 7.2 6.8 6.9 6.9 6.9 6.8 6.6 6.6 6.4 6.3 6.2 6.1 6.0 6.0 6.0
2.4 2.3 1.9 2.2 2.2 3.1 3.1 2.3 2.7 2.6 2.5 2.3 2.4 3.6 3.8 4.1 4.2 4.4 4.5 4.5 4.6 4.7 5.0 5.4 5.5 5.7 5.4 5.8 6.8 7.2 7.1 7.0 6.7 6.6 6.7 6.7 6.5 6.5 6.5 6.3 6.2 6.2 6.2 6.2
2.4 2.3 1.9 2.2 2.4 3.1 3.3 3.1 3.4 3.1 2.8 2.5 2.9 3.9 4.1 4.1 4.3 4.5 4.5 4.6 4.6 5.0 5.1 5.7 5.6 5.8 6.1 6.9 7.2 7.0 7.2 7.2 7.2 6.8 6.7 6.7 6.6 6.4 6.4 6.3 6.3 6.3 6.4 6.3
2.4 2.0 1.9 2.2 3.0 3.3 3.1 3.1 3.9 3.9 3.5 2.3 3.0 3.8 4.2 4.1 4.3 4.3 4.3 4.3 4.6 4.8 5.3 5.7 5.5 5.9 6.9 7.2 7.2 7.4 7.3 7.2 7.2 7.1 6.7 6.6 6.5 6.5 6.3 6.2 6.1 6.1 6.0 6.0
2.3 1.7 1.8 2.7 3.3 3.4 3.2 3.2 4.1 4.4 4.3 3.9 3.9 4.1 4.1 4.4 4.4 4.3 4.5 4.4 4.6 4.7 4.9 5.4 5.4 6.6 7.2 7.2 7.5 7.2 7.1 7.2 7.3 7.0 6.9 6.7 6.6 6.5 6.4 6.3 6.1 6.0 5.9 5.9
2.2 1.9 2.6 3.3 3.3 3.1 2.9 2.5 3.8 4.1 4.1 4.2 4.7 4.5 4.4 4.5 4.6 4.6 4.4 4.5 4.7 4.4 4.6 4.8 5.1 6.2 6.7 7.1 7.0 7.0 6.8 6.9 7.0 6.9 6.9 6.7 6.5 6.4 6.5 6.5 6.3 6.2 6.0 6.0
2.7 2.9 3.0 3.1 3.2 2.8 2.7 2.5 3.7 4.5 4.5 5.0 5.2 5.2 5.2 5.2 5.0 4.8 4.7 4.6 4.7 4.8 4.5 4.8 5.6 6.8 6.7 6.8 6.7 6.8 7.1 7.2 7.2 7.2 6.8 6.7 6.6 6.6 6.6 6.5 6.5 6.7 6.8 6.7
3.3 3.0 3.3 3.2 2.6 2.6 2.2 3.1 4.0 5.3 5.1 5.6 5.8 5.9 5.8 5.7 5.3 5.1 5.0 4.8 4.9 5.0 5.0 5.8 6.8 6.8 6.8 6.8 6.8 7.0 7.1 7.3 7.3 7.5 7.3 7.1 7.0 6.8 6.8 6.8 6.9 7.0 7.0 6.8
3.2 3.4 3.7 3.0 2.5 2.2 3.7 4.3 4.7 5.1 5.1 5.6 5.8 5.9 5.8 5.9 5.6 5.7 5.4 4.8 5.2 5.3 5.5 6.7 7.0 7.0 7.0 6.8 6.7 6.8 6.8 6.9 7.2 7.6 7.5 7.3 7.0 6.8 6.8 6.8 6.9 6.9 6.7 6.6
3.8 4.1 3.7 2.8 3.1 4.3 4.5 4.8 5.0 5.0 4.9 5.5 6.0 6.3 6.2 6.2 5.9 5.7 5.4 5.4 5.4 5.8 7.1 7.2 7.1 7.0 6.6 6.6 6.6 6.6 6.5 6.5 6.8 7.0 7.4 7.1 7.0 6.9 6.9 6.8 6.9 6.8 6.6 6.5
4.5 4.0 3.5 3.1 3.9 4.3 4.6 5.6 5.3 5.4 5.6 5.8 6.0 6.1 6.4 6.2 6.1 5.6 5.8 5.6 6.6 7.3 7.2 7.2 7.2 7.0 6.8 6.5 6.5 6.8 6.8 6.7 6.5 6.8 7.0 7.1 7.1 6.9 6.7 6.6 6.5 6.4 6.3 6.3
4.2 3.5 3.4 3.3 3.7 4.5 5.5 5.7 5.6 5.7 5.8 6.0 6.3 6.3 6.5 6.1 5.7 5.5 5.7 6.5 7.1 7.0 6.9 6.9 6.6 6.7 6.5 6.3 6.3 6.4 6.4 6.5 6.8 7.2 6.6 6.6 6.7 6.6 6.4 6.4 6.4 6.2 6.2 6.1
Wind_Speed
38 40 41 41 37 29 10 3 5 8 7 5 3 4 4 8 9 11 7 5 5 3 5 7 5 3 4 9 6 4 4 2 4 11 3 4 1 4 4 4 4 2 3 4
37 38 40 40 37 24 2 3 1 5 5 5 4 4 4 5 10 9 7 8 7 4 6 5 4 3 5 7 9 4 5 2 4 4 7 1 4 4 4 3 3 4 5 4
35 37 39 42 39 23 4 3 4 4 5 3 4 2 5 4 6 3 5 6 5 5 6 4 4 6 3 8 9 7 4 2 3 6 2 3 4 3 3 4 2 3 4 6
35 35 37 40 40 25 4 4 1 3 4 5 4 3 1 4 6 6 9 5 10 4 6 6 6 7 6 2 11 5 3 2 2 1 5 3 4 5 6 6 4 4 5 9
30 31 33 37 40 14 5 3 3 3 2 1 4 6 2 2 4 3 5 4 6 5 4 2 4 8 6 4 8 6 6 2 3 3 5 3 3 3 4 3 3 5 8 2
26 28 29 31 34 14 4 2 2 4 6 3 4 2 2 3 2 3 1 1 2 4 2 4 8 7 5 5 5 4 4 2 2 3 3 1 2 2 3 3 4 2 6 3
22 24 24 25 24 16 3 1 2 3 2 3 2 2 2 2 3 4 2 2 3 2 4 5 4 5 7 5 5 4 3 2 0 2 2 3 2 3 3 5 3 3 6 4
17 19 21 20 20 13 4 1 3 3 0 2 1 2 2 2 4 3 2 1 2 5 3 3 4 4 5 4 1 3 4 0 1 2 0 4 2 4 5 4 4 2 4 3
12 15 17 17 17 11 4 2 1 3 4 3 3 2 2 2 1 6 3 3 4 3 2 4 2 1 4 5 7 2 3 2 2 0 4 6 1 3 3 1 4 6 3 2
8 10 13 14 14 13 4 2 3 3 3 3 4 2 3 4 2 2 3 4 5 2 2 3 2 2 2 2 2 3 3 2 3 2 2 6 3 6 5 4 1 6 3 3
5 7 8 9 11 11 3 1 4 3 2 3 4 4 3 2 1 3 3 3 3 3 4 3 2 2 2 2 3 3 3 3 3 2 0 6 4 3 5 3 3 6 5 3
5 4 6 7 6 7 3 2 1 2 2 3 1 1 1 5 6 4 2 5 3 3 3 1 2 1 1 3 3 3 3 5 3 6 3 2 3 3 3 4 5 4 4 3
6 4 4 5 3 3 3 2 1 2 2 3 2 3 2 4 3 3 3 2 4 1 3 3 3 2 3 3 5 2 4 3 3 4 3 5 6 4 6 5 5 7 5 4
9 5 4 6 1 3 4 1 2 3 2 2 4 1 2 2 3 2 3 4 3 3 0 1 2 2 2 3 2 3 3 4 4 6 6 5 6 5 9 7 7 7 5 4
10 6 5 6 1 5 7 2 1 3 3 3 3 3 1 2 2 4 4 4 3 2 1 1 3 1 2 1 1 4 6 7 5 5 5 5 5 9 8 7 7 6 5 4
11 8 6 2 3 10 3 2 1 3 2 3 2 1 3 2 1 4 4 3 2 2 3 3 1 0 3 2 3 7 6 4 6 4 5 3 2 6 4 7 6 3 4 3
12 10 6 3 7 4 2 3 2 6 3 3 3 3 0 1 3 2 1 1 1 3 1 1 2 1 3 2 3 5 4 4 2 2 7 4 3 5 7 6 4 2 2 1
12 8 7 9 10 8 1 2 5 4 3 2 1 3 1 2 1 1 1 1 2 1 2 0 2 1 1 4 11 5 1 3 2 4 3 2 7 6 4 3 4 3 1 2
11 12 12 5 2 1 2 6 7 5 1 2 2 3 4 1 1 2 2 2 2 1 2 2 3 2 5 10 7 5 9 8 8 5 5 4 4 8 5 4 2 4 3 3
22 5 2 1 2 11 9 2 2 3 2 2 3 1 3 3 1 0 3 0 2 2 2 2 2 4 12 8 8 5 8 8 13 6 1 2 3 7 6 8 4 5 4 3
2 3 2 2 7 1 1 1 2 1 3 3 3 4 3 2 3 3 2 2 1 1 2 3 2 4 4 3 5 4 7 12 11 3 3 10 6 10 8 6 7 6 5 4
7 7 6 2 2 1 2 3 2 4 4 2 4 3 2 1 0 3 1 3 2 4 1 2 3 4 5 5 4 3 4 9 8 4 8 7 7 8 8 7 6 6 4 3
4 2 4 4 3 4 8 9 4 3 4 5 3 1 2 1 1 2 3 3 4 2 1 4 5 3 5 6 3 2 1 5 7 5 3 5 6 5 6 6 5 5 4 5
3 6 7 6 5 6 6 5 5 3 4 6 3 3 2 2 2 2 4 2 2 1 2 7 3 4 5 6 2 3 5 7 7 8 7 7 8 7 6 5 4 5 5 4
4 5 7 9 4 1 1 2 5 3 7 6 4 2 1 1 3 1 4 2 4 6 5 3 3 4 3 4 2 4 4 5 6 5 7 7 7 6 6 5 5 6 4 4
4 6 3 0 3 3 2 2 2 3 6 3 2 3 3 3 3 3 7 6 7 3 3 2 1 4 4 3 3 5 5 7 5 5 4 4 6 7 5 3 5 6 6 5
5 4 2 4 1 4 4 4 5 7 5 4 3 5 6 4 2 4 5 5 3 2 1 1 1 3 6 5 3 4 6 7 7 5 6 4 3 4 4 5 5 6 6 5
Wind_Direction
4 2 1 5 6 357 39 63 50 330 354 59 31 42 11 6 340 4 17 36 15 24 346 18 66 60 2 357 322 24 2 84 109 210 65 8 290 184 129 118 205 165 145 243
8 4 1 6 9 16 68 72 341 337 32 72 7 28 41 49 10 1 13 7 0 351 5 70 63 47 335 10 19 20 334 346 99 66 315 301 230 205 159 139 85 191 138 236
11 7 5 4 8 15 77 75 30 353 43 37 92 62 14 19 356 33 11 15 356 350 23 22 38 359 334 336 2 347 303 18 53 184 227 111 188 162 145 140 120 162 204 156
10 10 10 7 8 13 80 32 243 191 345 4 51 69 5 356 11 4 6 31 22 340 9 353 19 1 344 9 355 357 38 54 351 351 296 280 225 167 183 195 183 165 196 154
13 12 14 14 6 18 75 91 89 5 146 329 50 7 336 353 316 55 341 47 330 41 80 141 310 359 7 355 326 14 345 94 356 305 343 308 131 343 178 160 74 77 104 96
14 15 15 21 18 28 77 349 46 104 320 13 77 264 260 275 344 299 212 303 69 16 114 227 235 226 258 260 317 327 36 27 3 229 334 15 348 292 335 80 51 34 170 121
13 16 17 25 35 49 101 48 91 73 287 72 202 197 209 295 320 200 298 67 99 249 313 258 221 225 239 236 245 203 339 346 283 240 7 187 147 122 31 112 84 78 94 85
10 12 17 23 31 51 77 56 91 99 111 182 264 294 230 345 326 351 291 287 198 311 325 26 7 343 13 321 320 180 200 248 347 139 184 293 180 190 169 194 198 216 147 130
6 9 12 20 25 36 83 66 101 100 114 273 180 160 176 159 2 342 283 342 311 16 66 61 111 233 226 301 332 28 142 104 121 200 151 219 173 169 112 43 266 162 171 136
358 4 7 11 22 26 87 78 65 94 113 240 127 199 182 137 102 184 299 331 353 339 66 82 124 266 198 279 280 297 332 8 158 283 232 280 226 146 156 143 230 143 132 132
332 347 1 3 16 20 76 67 28 111 145 271 181 172 140 113 97 136 255 46 321 25 69 116 209 146 257 22 236 190 198 143 207 109 241 275 137 76 195 120 89 132 133 130
288 326 337 346 8 16 45 88 354 104 130 206 278 254 204 169 188 137 8 169 185 190 88 37 109 210 36 161 275 343 292 188 211 195 217 171 183 169 140 136 136 159 154 142
257 274 309 324 354 63 84 154 137 63 55 335 27 239 226 90 151 155 120 291 178 290 186 162 178 196 143 198 240 230 238 162 210 35 257 211 187 143 148 144 135 144 136 143
241 253 282 305 282 135 137 165 148 102 118 101 281 34 103 116 119 110 131 140 70 109 77 110 140 170 178 219 238 201 208 125 174 272 282 321 261 210 163 143 137 136 139 148
228 239 259 287 276 149 113 110 156 146 127 208 262 322 328 79 131 144 124 131 113 127 121 168 230 194 101 345 34 246 186 184 171 221 206 168 234 172 154 151 163 149 153 157
220 227 239 223 267 145 93 18 230 185 120 88 328 253 22 17 150 154 152 168 161 115 150 220 233 198 114 168 236 254 210 209 177 217 140 108 56 102 107 147 152 159 168 171
210 221 211 156 179 123 134 201 180 153 104 83 321 312 293 166 91 31 75 4 235 134 216 225 161 239 127 151 241 257 238 213 217 202 116 38 264 196 172 142 151 135 102 132
203 209 141 133 120 105 13 338 118 116 92 74 180 268 340 169 167 132 180 123 21 239 209 200 179 112 85 256 239 246 328 103 91 189 347 171 116 94 108 102 124 116 222 284
184 141 124 111 83 159 205 118 88 51 114 203 153 184 219 153 173 136 41 111 178 245 204 227 142 191 233 229 220 208 184 179 182 124 78 59 117 150 148 137 133 165 217 203
138 102 134 107 191 126 125 40 44 19 326 31 228 127 200 134 174 252 105 84 201 196 229 104 186 257 263 254 227 203 180 166 139 112 199 181 217 194 187 200 189 190 191 189
109 155 138 66 125 137 89 118 139 169 262 205 232 195 153 236 132 164 181 164 171 133 230 170 241 265 252 293 286 267 183 168 181 154 182 180 171 182 181 196 197 196 205 209
155 117 101 116 170 94 158 205 139 202 239 194 160 202 162 207 314 109 207 129 79 230 129 92 252 254 267 301 283 297 182 156 156 170 150 158 160 152 160 167 177 193 195 225
90 129 136 159 165 199 194 190 194 222 188 177 161 141 141 37 25 59 111 114 200 92 122 231 234 274 285 284 261 296 339 125 127 135 125 127 131 129 151 173 188 154 205 235
154 171 194 199 190 233 196 187 164 160 124 138 114 105 164 182 103 144 126 141 94 102 252 232 248 251 289 322 265 137 195 186 170 169 165 166 164 177 182 169 148 177 215 240
182 190 216 207 208 192 161 110 110 130 134 124 102 88 165 146 113 178 102 71 248 216 233 224 236 268 283 297 248 210 182 187 188 173 180 184 176 180 186 176 199 203 208 220
212 215 205 11 119 167 170 155 122 141 132 102 98 150 155 196 143 134 214 159 224 235 216 232 280 302 305 283 245 221 188 186 187 183 180 174 184 189 177 172 202 206 206 216
211 218 181 184 92 176 157 148 162 155 134 165 149 175 203 109 180 235 193 211 227 191 280 238 223 300 323 313 280 221 200 196 198 178 178 191 164 140 159 207 217 211 209 211